Location: *
(33.3200°N, 8.3381°W)
Time: 19:25:49
(UTC+00:00)

Cosmos 1953 - Pass Details

Date: 09 April 2020
Orbit: 540 x 557 km, 82.5° (Epoch: 27 May)

Event Time Altitude Azimuth Distance (km) Brightness Sun altitude
Rises 19:27:53 0° 191° (S) 2,681 5.8 -6.5°
Reaches altitude 10° 19:30:02 10° 194° (SSW) 1,795 4.9 -7.0°
Maximum altitude 19:33:57 67° 277° (W) 589 2.7 -7.8°
Drops below altitude 10° 19:37:56 10° 1° (N) 1,816 5.2 -8.6°
Sets 19:40:07 0° 4° (N) 2,716 6.0 -9.0°
